Fort Eustis, VA

6:40 AM EST on December 11, 2017 (GMT -0500)
Felker Army Air Field

Weather History for KFAF - February, 2014

Change the Weather History Date:

Wednesday, February 5, 2014

  Actual Average Record
Temperature  
Mean Temperature 40 °F -  
Max Temperature 48 °F 49 °F 72 °F (2008)
Min Temperature 33 °F 33 °F 18 °F (2009)
Degree Days  
Heating Degree Days 24    
Moisture  
Dew Point 38 °F    
Average Humidity 98    
Maximum Humidity 100    
Minimum Humidity 85    
Precipitation  
Precipitation 0.02 in - - ()
Sea Level Pressure  
Sea Level Pressure 29.88 in    
Wind  
Wind Speed 5 mph (WNW)    
Max Wind Speed 13 mph    
Max Gust Speed 20 mph    
Visibility 6 miles    
Events Rain    
Averages and records for this station are not official NWS values.
T = Trace of Precipitation, MM = Missing Value Source: NWS Daily Summary

Daily Weather History Graph

Daily Weather History Graph

Search for Another Location

Airport or City:

Trip Planner

Search our weather history database for the weather conditions in past years. The results will help you decide how hot, cold, wet, or windy it might be!

Date:

Astronomy

Feb. 05, 2014 Rise Set
Actual Time 7:05 AM EST 5:35 PM EST
Civil Twilight 6:38 AM EST 6:02 PM EST
Nautical Twilight 6:07 AM EST 6:33 PM EST
Astronomical Twilight 5:37 AM EST 7:04 PM EST
Moon 10:28 AM EST (2/5) No Moon Set
Length of Visible Light 11h 24m
Length of Day
10h 30m
Waxing Crescent, 39% of the Moon is Illuminated
Feb 5
Waxing Crescent
Feb 6
First Quarter
Feb 14
Full
Feb 22
Last Quarter
Mar 1
New

Hourly Weather History & Observations

Time (EST) Temp. Windchill Dew Point Humidity Pressure Visibility Wind Dir Wind Speed Gust Speed Precip Events Conditions
12:12 AM 35.6 °F 32.8 °F 35.6 °F 100% 30.07 in 6.0 mi ENE 3.5 mph - N/A   Light Drizzle
12:44 AM 35.6 °F 32.8 °F 35.6 °F 100% 30.05 in 9.0 mi ENE 3.5 mph - N/A   Overcast
12:58 AM 36.3 °F - 35.6 °F 97% 30.04 in 10.0 mi NNW 1.2 mph - 0.01 in   Overcast
1:08 AM 35.6 °F - 35.6 °F 100% 30.03 in 10.0 mi Variable 1.2 mph - N/A   Overcast
1:14 AM 35.6 °F 31.7 °F 35.6 °F 100% 30.03 in 10.0 mi NW 4.6 mph - N/A Rain Light Rain
1:39 AM 35.6 °F 30.7 °F 35.6 °F 100% 30.02 in 10.0 mi NW 5.8 mph - N/A   Overcast
1:45 AM 35.6 °F 30.7 °F 35.6 °F 100% 30.01 in 9.0 mi NW 5.8 mph - N/A Rain Light Rain
1:58 AM 36.5 °F 32.7 °F 35.8 °F 97% 30.02 in 10.0 mi NNW 4.6 mph - 0.01 in Rain Light Rain
2:11 AM 37.4 °F 32.1 °F 35.6 °F 93% 30.00 in 10.0 mi NNW 6.9 mph - N/A   Overcast
2:43 AM 37.4 °F 32.8 °F 35.6 °F 93% 29.98 in 9.0 mi NNW 5.8 mph - N/A Rain Light Rain
2:58 AM 36.7 °F 29.4 °F 36.0 °F 97% 29.99 in 7.0 mi NW 10.4 mph - 0.00 in   Light Drizzle
3:00 AM 37.4 °F 29.8 °F 35.6 °F 93% 29.98 in 7.0 mi NW 11.5 mph - N/A   Overcast
3:58 AM 35.8 °F 30.9 °F 35.2 °F 98% 29.96 in 4.0 mi NW 5.8 mph - 0.00 in   Overcast
4:12 AM 35.6 °F 30.7 °F 35.6 °F 100% 29.93 in 3.0 mi NNW 5.8 mph - N/A Rain Light Rain
4:22 AM 35.6 °F 29.2 °F 35.6 °F 100% 29.93 in 3.0 mi NW 8.1 mph - N/A   Overcast
4:37 AM 35.6 °F 29.2 °F 35.6 °F 100% 29.93 in 2.5 mi NW 8.1 mph - N/A   Overcast
4:42 AM 35.6 °F 28.6 °F 35.6 °F 100% 29.93 in 3.0 mi NW 9.2 mph - N/A   Overcast
4:44 AM 35.6 °F 28.6 °F 35.6 °F 100% 29.93 in 3.0 mi NW 9.2 mph - N/A   Light Drizzle
4:49 AM 35.6 °F 28.6 °F 35.6 °F 100% 29.92 in 2.5 mi NW 9.2 mph - N/A   Light Drizzle
4:58 AM 35.4 °F 28.4 °F 35.1 °F 99% 29.94 in 2.5 mi NW 9.2 mph - 0.00 in   Light Drizzle
4:59 AM 35.6 °F 28.6 °F 35.6 °F 100% 29.93 in 2.5 mi NW 9.2 mph - N/A   Overcast
5:09 AM 35.6 °F 29.9 °F 35.6 °F 100% 29.92 in 2.5 mi WNW 6.9 mph - N/A   Overcast
5:58 AM 34.9 °F 29.0 °F 34.7 °F 99% 29.92 in 1.5 mi WNW 6.9 mph - 0.00 in   Overcast
6:41 AM 33.8 °F 26.4 °F 33.8 °F 100% 29.91 in 1.5 mi NW 9.2 mph - N/A   Overcast
6:43 AM 33.8 °F 26.4 °F 33.8 °F 100% 29.91 in 1.5 mi NW 9.2 mph - N/A   Overcast
6:58 AM 34.3 °F 27.7 °F 34.2 °F 99% 29.92 in 1.0 mi NW 8.1 mph - N/A   Overcast
7:14 AM 33.8 °F 27.7 °F 33.8 °F 100% 29.91 in 1.5 mi NW 6.9 mph - N/A   Overcast
7:17 AM 33.8 °F 27.7 °F 33.8 °F 100% 29.91 in 1.5 mi NW 6.9 mph - N/A   Light Drizzle
7:45 AM 33.8 °F 28.6 °F 33.8 °F 100% 29.91 in 1.0 mi NW 5.8 mph - N/A Rain Rain
7:50 AM 33.8 °F - 33.8 °F 100% 29.91 in 1.8 mi NW 2.3 mph - N/A Rain Heavy Rain
7:59 AM 33.8 °F 30.8 °F 33.8 °F 100% 29.91 in 2.0 mi NW 3.5 mph - N/A Rain Light Rain
8:06 AM 33.8 °F 28.6 °F 33.8 °F 100% 29.90 in 5.0 mi WNW 5.8 mph - N/A   Overcast
8:58 AM 34.7 °F 31.8 °F 34.5 °F 99% 29.89 in 5.0 mi SSW 3.5 mph - 0.00 in   Overcast
9:13 AM 35.6 °F - 33.8 °F 93% 29.87 in 5.0 mi SSW 2.3 mph - N/A   Overcast
9:23 AM 35.6 °F 32.8 °F 33.8 °F 93% 29.86 in 6.0 mi South 3.5 mph - N/A   Overcast
9:38 AM 35.6 °F - 35.6 °F 100% 29.85 in 6.0 mi South 2.3 mph - N/A   Overcast
9:58 AM 35.1 °F 31.0 °F 34.7 °F 99% 29.83 in 8.0 mi South 4.6 mph - N/A   Overcast
10:09 AM 35.6 °F 30.7 °F 35.6 °F 100% 29.81 in 8.0 mi SSE 5.8 mph - N/A   Light Drizzle
10:40 AM 35.6 °F 31.7 °F 35.6 °F 100% 29.79 in 2.0 mi South 4.6 mph - N/A   Overcast
10:58 AM 36.5 °F 32.7 °F 36.3 °F 99% 29.80 in 2.0 mi Variable 4.6 mph - 0.00 in   Overcast
11:18 AM 37.4 °F 33.8 °F 37.4 °F 100% 29.79 in 1.8 mi SW 4.6 mph - N/A   Overcast
11:35 AM 37.4 °F 34.9 °F 37.4 °F 100% 29.79 in 1.0 mi SSW 3.5 mph - N/A   Overcast
11:43 AM 37.4 °F 34.9 °F 37.4 °F 100% 29.78 in 1.2 mi WNW 3.5 mph - N/A   Overcast
11:55 AM 37.9 °F 33.5 °F 37.6 °F 99% 29.79 in 1.0 mi WNW 5.8 mph - N/A   Overcast
11:58 AM 37.9 °F 35.5 °F 37.6 °F 99% 29.79 in 1.2 mi West 3.5 mph - N/A   Overcast
12:18 PM 39.2 °F 33.6 °F 39.2 °F 100% 29.78 in 2.5 mi West 8.1 mph - N/A   Overcast
12:23 PM 39.2 °F 34.2 °F 39.2 °F 100% 29.78 in 3.0 mi Variable 6.9 mph - N/A   Overcast
12:48 PM 41.0 °F 38.0 °F 39.2 °F 93% 29.76 in 10.0 mi Variable 4.6 mph - N/A   Overcast
12:55 PM 40.6 °F 37.5 °F 40.3 °F 99% 29.76 in 6.0 mi West 4.6 mph - N/A   Overcast
12:58 PM 40.6 °F 38.6 °F 40.3 °F 99% 29.76 in 10.0 mi West 3.5 mph - N/A   Overcast
1:43 PM 42.8 °F 39.3 °F 42.8 °F 100% 29.72 in 10.0 mi WSW 5.8 mph - N/A   Overcast
1:55 PM 44.4 °F 42.0 °F 44.4 °F 100% 29.72 in 10.0 mi SW 4.6 mph - N/A   Overcast
1:58 PM 44.4 °F 40.5 °F 44.4 °F 100% 29.72 in 10.0 mi SW 6.9 mph - N/A   Overcast
2:28 PM 46.4 °F 41.9 °F 46.4 °F 100% 29.72 in 10.0 mi West 9.2 mph - N/A   Overcast
2:58 PM 46.8 °F - 46.6 °F 99% 29.74 in 10.0 mi West 6.9 mph - N/A   Overcast
3:58 PM 48.4 °F - 46.2 °F 92% 29.75 in 10.0 mi West 6.9 mph - N/A   Overcast
4:37 PM 48.2 °F - 46.4 °F 93% 29.76 in 10.0 mi Variable 4.6 mph - N/A   Mostly Cloudy
4:42 PM 48.2 °F - 46.4 °F 93% 29.76 in 10.0 mi West 6.9 mph - N/A   Scattered Clouds
4:58 PM 48.4 °F - 45.3 °F 89% 29.77 in 10.0 mi Variable 5.8 mph - N/A   Scattered Clouds
5:58 PM 46.6 °F - 44.2 °F 92% 29.81 in 10.0 mi West 5.8 mph - N/A   Clear
6:58 PM 45.0 °F 43.5 °F 43.3 °F 94% 29.84 in 10.0 mi West 3.5 mph - N/A   Clear
7:58 PM 44.1 °F - 42.4 °F 94% 29.87 in 10.0 mi Variable 2.3 mph - N/A   Clear
8:58 PM 44.2 °F 41.8 °F 42.8 °F 95% 29.92 in 10.0 mi West 4.6 mph - N/A   Clear
9:58 PM 44.2 °F 38.0 °F 42.1 °F 92% 29.96 in 10.0 mi WNW 12.7 mph 19.6 mph N/A   Clear
10:58 PM 42.4 °F 38.8 °F 39.2 °F 88% 30.00 in 10.0 mi NNW 5.8 mph - N/A   Clear
11:58 PM 41.7 °F 36.7 °F 37.6 °F 85% 30.03 in 10.0 mi North 8.1 mph - N/A   Clear